FW8505 Weather Reports


time (UTC)temp
C
wind
direction
speed
KPH
gust
KPH
rain 1hr
cm
rain 24hr
cm
rain mn
cm
humidity
%
barometer
mb
20260504190024 27 14 1.6 6.4 0.00 0.00 0.00 49 1015.8
20260504184515 28 84 3.2 11.3 0.00 0.00 0.00 48 1016.3
20260504183012 27 163 3.2 14.5 0.00 0.00 0.00 55 1016.6
20260504181516 27 331 3.2 9.7 0.00 0.00 0.00 52 1016.9
20260504180010 26 67 0.0 11.3 0.00 0.00 0.00 51 1017.3
20260504174512 26 360 1.6 4.8 0.00 0.00 0.00 56 1017.3
20260504173006 27 17 4.8 16.1 0.00 0.00 0.00 53 1017.3
20260504171508 26 49 0.0 12.9 0.00 0.00 0.00 56 1017.4
20260504100116 15 26 0.0 3.2 0.00 0.00 0.00 91 1017.1
20260504081548 16 27 0.0 3.2 0.00 0.00 0.00 89 1017.0
20260504044536 17 136 0.0 0.0 0.00 0.00 0.00 88 1017.8
20260504043038 18 136 0.0 0.0 0.00 0.00 0.00 87 1018.3
20260504041522 18 143 0.0 3.2 0.00 0.00 0.00 86 1018.4
20260504040022 18 77 0.0 3.2 0.00 0.00 0.00 86 1018.7
20260504034520 18 77 0.0 3.2 0.00 0.00 0.00 85 1018.9
20260504033019 18 15 0.0 0.0 0.00 0.00 0.00 86 1018.7
20260504031519 18 15 0.0 0.0 0.00 0.00 0.00 85 1018.6
20260504030018 18 15 0.0 0.0 0.00 0.00 0.00 85 1018.4
20260504024518 18 15 0.0 0.0 0.00 0.00 0.00 84 1018.5
20260504023017 19 15 0.0 4.8 0.00 0.00 0.00 82 1018.2
20260504021518 19 19 0.0 0.0 0.00 0.00 0.00 83 1018.2
20260504020018 18 19 0.0 0.0 0.00 0.00 0.00 83 1017.9
20260504014515 18 19 0.0 1.6 0.00 0.00 0.00 83 1017.7
20260504013019 18 19 0.0 1.6 0.00 0.00 0.00 84 1017.6
20260504011515 19 19 0.0 0.0 0.00 0.00 0.00 81 1017.2
20260504010014 20 19 0.0 0.0 0.00 0.00 0.00 79 1017.0
20260504004518 20 19 0.0 3.2 0.00 0.00 0.00 76 1016.9
20260504003013 21 19 0.0 3.2 0.00 0.00 0.00 75 1016.7
20260504001513 21 270 0.0 3.2 0.00 0.00 0.00 74 1016.5
20260504000013 21 360 0.0 4.8 0.00 0.00 0.00 74 1016.3
20260503234517 22 324 1.6 4.8 0.00 0.00 0.00 71 1016.4
20260503233011 22 21 1.6 6.4 0.00 0.00 0.00 70 1016.3
20260503231511 23 40 0.0 4.8 0.00 0.00 0.00 71 1016.3
20260503230012 23 285 0.0 8.0 0.00 0.03 0.00 71 1016.3
20260503224510 23 31 1.6 6.4 0.00 0.03 0.00 68 1016.2
20260503223010 24 62 1.6 8.0 0.00 0.03 0.00 68 1016.2
20260503221509 25 122 0.0 4.8 0.00 0.03 0.00 66 1016.3
20260503220009 25 217 3.2 6.4 0.00 0.03 0.00 63 1016.3
20260503214529 26 64 0.0 8.0 0.00 0.03 0.00 60 1016.3
20260503213008 25 26 0.0 3.2 0.00 0.03 0.00 59 1016.2
20260503211508 25 67 3.2 6.4 0.00 0.03 0.00 59 1016.3
20260503210007 26 225 0.0 6.4 0.00 0.15 0.00 61 1016.3
20260503204507 26 96 1.6 6.4 0.00 0.15 0.00 57 1016.2
20260503203006 25 33 0.0 8.0 0.00 0.15 0.00 59 1016.5
20260503201506 26 138 1.6 9.7 0.00 0.15 0.00 58 1016.6
20260503200004 25 219 0.0 8.0 0.00 0.30 0.00 60 1016.9
20260503194502 25 146 3.2 9.7 0.00 0.30 0.00 62 1017.1
20260503193002 25 343 3.2 9.7 0.00 0.30 0.00 62 1017.2
20260503191607 26 306 0.0 8.0 0.00 0.30 0.00 59 1017.4
20260503191507 26 309 0.0 8.0 0.00 0.30 0.00 59 1017.3